FW4287 Weather Reports


time (UTC)temp
F
wind
direction
speed
knots
gust
knots
rain 1hr
in
rain 24hr
in
rain mn
in
humidity
%
barometer
mb
20260508113031 41 191 0.0 1.7 0.00 0.00 0.00 85 1017.3
20260508111605 42 227 0.0 1.7 0.00 0.00 0.00 85 1017.2
20260508110030 41 247 0.0 1.7 0.00 0.00 0.00 84 1017.1
20260508103030 40 270 0.0 2.6 0.00 0.00 0.00 83 1017.1
20260508101541 40 266 0.0 3.5 0.00 0.00 0.00 83 1017.1
20260508094604 41 247 0.0 0.0 0.00 0.00 0.00 80 1017.1
20260508093028 41 247 0.0 0.0 0.00 0.00 0.00 78 1017.0
20260508091528 42 247 0.0 0.9 0.00 0.00 0.00 76 1017.1
20260508090030 43 247 0.0 0.9 0.00 0.00 0.00 75 1017.1
20260508084532 43 247 0.0 0.9 0.00 0.00 0.00 74 1017.2
20260508083032 44 249 0.0 1.7 0.00 0.00 0.00 71 1017.2
20260508081529 45 151 0.0 1.7 0.00 0.00 0.00 69 1017.2
20260508080038 46 112 0.0 0.9 0.00 0.00 0.00 66 1017.2
20260508074531 46 112 0.0 0.9 0.00 0.00 0.00 67 1017.3
20260508073054 47 112 0.0 2.6 0.00 0.00 0.00 66 1017.3
20260508071532 48 114 0.0 2.6 0.00 0.00 0.00 64 1017.4
20260508070035 48 117 0.0 3.5 0.00 0.00 0.00 64 1017.3
20260508064536 48 129 1.7 4.3 0.00 0.00 0.00 62 1017.4
20260508061532 52 145 1.7 5.2 0.00 0.00 0.00 54 1017.6
20260508060108 52 193 1.7 4.3 0.00 0.00 0.00 52 1017.7
20260508053031 54 194 3.5 6.1 0.00 0.00 0.00 45 1017.8
20260508051529 57 195 4.3 7.0 0.00 0.00 0.00 40 1017.8
20260508050029 58 200 6.1 10.4 0.00 0.00 0.00 37 1017.8
20260508043032 58 197 6.1 12.2 0.00 0.00 0.00 35 1017.7
20260508041530 59 205 4.3 7.8 0.00 0.00 0.00 33 1017.7
20260508040032 59 207 5.2 8.7 0.00 0.00 0.00 34 1017.4
20260508034532 60 213 5.2 10.4 0.00 0.00 0.00 34 1017.4
20260508031531 61 212 6.1 11.3 0.00 0.00 0.00 31 1017.1
20260508030105 62 211 7.0 14.8 0.00 0.00 0.00 30 1017.1
20260508024530 63 226 7.0 13.0 0.00 0.00 0.00 31 1017.0
20260508023031 64 226 5.2 11.3 0.00 0.00 0.00 30 1016.9
20260508021529 65 226 6.1 12.2 0.00 0.00 0.00 30 1016.7
20260508020029 66 233 6.1 13.9 0.00 0.00 0.00 29 1016.7
20260508013103 68 245 7.0 15.6 0.00 0.00 0.00 28 1016.7
20260508010032 69 239 7.8 13.9 0.00 0.00 0.00 25 1016.8
20260508004529 69 222 8.7 15.6 0.00 0.00 0.00 24 1016.7
20260508003030 69 230 9.6 17.4 0.00 0.00 0.00 23 1016.7
20260508000028 70 220 9.6 17.4 0.00 0.00 0.00 23 1016.6
20260507234531 70 216 7.8 15.6 0.00 0.00 0.00 23 1016.6
20260507233028 70 218 8.7 16.5 0.00 0.00 0.00 23 1016.7
20260507231638 69 224 8.7 18.2 0.00 0.00 0.00 24 1016.9
20260507230030 69 221 7.0 15.6 0.00 0.00 0.00 24 1017.0
20260507224607 69 237 7.8 14.8 0.00 0.00 0.00 24 1017.0
20260507223029 69 217 9.6 17.4 0.00 0.00 0.00 25 1017.2
20260507221604 69 211 7.8 15.6 0.00 0.00 0.00 26 1017.4
20260507214529 70 208 8.7 18.2 0.00 0.00 0.00 27 1017.5
20260507213030 69 189 5.2 14.8 0.00 0.00 0.00 35 1017.5
20260507211540 68 5 4.3 8.7 0.00 0.00 0.00 38 1017.6
20260507210107 69 246 5.2 9.6 0.00 0.00 0.00 29 1017.8
20260507204533 69 202 7.8 14.8 0.00 0.00 0.00 30 1017.8
20260507203032 68 254 5.2 13.9 0.00 0.00 0.00 35 1017.9
20260507201531 68 275 6.1 14.8 0.00 0.00 0.00 32 1018.0
20260507200031 68 197 9.6 14.8 0.00 0.00 0.00 29 1018.2
20260507194531 68 208 8.7 13.9 0.00 0.00 0.00 30 1018.2
20260507193106 66 222 7.0 13.0 0.00 0.00 0.00 35 1018.4
20260507191530 66 294 3.5 14.8 0.00 0.00 0.00 36 1018.4
20260507190029 66 265 3.5 6.1 0.00 0.00 0.00 34 1018.6
20260507184538 65 240 5.2 12.2 0.00 0.00 0.00 32 1018.8
20260507183046 65 203 7.0 11.3 0.00 0.00 0.00 34 1018.9
20260507181530 64 175 5.2 12.2 0.00 0.00 0.00 44 1018.9
20260507180031 62 277 2.6 8.7 0.00 0.00 0.00 54 1019.0
20260507174532 59 316 2.6 6.1 0.00 0.00 0.00 59 1019.2
20260507173029 59 9 7.0 10.4 0.00 0.00 0.00 60 1019.3
20260507171533 60 299 4.3 10.4 0.00 0.00 0.00 58 1019.4
20260507170109 57 39 4.3 8.7 0.00 0.00 0.00 62 1019.5
20260507164532 59 45 5.2 12.2 0.00 0.00 0.00 55 1019.5
20260507163033 58 213 5.2 10.4 0.00 0.00 0.00 55 1019.5
20260507161532 57 213 7.0 11.3 0.00 0.00 0.00 58 1019.6
20260507160145 57 201 4.3 10.4 0.00 0.00 0.00 60 1019.8
20260507154532 57 181 4.3 10.4 0.00 0.00 0.00 62 1019.8
20260507153034 56 185 3.5 9.6 0.00 0.00 0.00 64 1019.9
20260507150048 53 37 2.6 6.1 0.00 0.00 0.00 75 1019.9
20260507144534 51 27 5.2 7.8 0.00 0.00 0.00 78 1019.8
20260507141606 53 327 1.7 7.8 0.00 0.00 0.00 71 1019.7
20260507140031 53 225 6.1 13.9 0.00 0.00 0.00 72 1019.5
20260507134608 52 218 7.0 14.8 0.00 0.00 0.00 73 1019.4
20260507133028 52 186 4.3 12.2 0.00 0.00 0.00 75 1019.4
20260507131531 52 184 6.1 13.0 0.00 0.00 0.00 75 1019.3
20260507130031 52 208 7.0 15.6 0.00 0.00 0.00 75 1019.3
20260507124530 52 205 9.6 18.2 0.00 0.00 0.00 75 1019.3
20260507123029 52 210 9.6 16.5 0.00 0.00 0.00 75 1019.3
20260507121530 53 227 7.8 16.5 0.00 0.00 0.00 75 1019.3
20260507120031 53 228 8.7 15.6 0.00 0.00 0.00 75 1019.2